Flag for France Weather past 2 weeks in Chalon-sur-Saône, France

Now
57 °F

Sunny.


Feels Like: 57 °F
Forecast: 46 / 74 °F
Wind: No wind

Location: Dole Tavaux

Current Time: May 30, 2015 at 10:49:12 PM

Latest Report: May 30, 2015 at 10:30 PM


Visibility: 10 mi

Pressure: 30.07 "Hg

Humidity: 72%

Dew point: 48 °F

Location of Chalon-sur-SaôneLocation

Historic Weather in Chalon-sur-Saône — Graph

°F

Chalon-sur-Saône temperature yesterday

Maximum temperature yesterday: 77 °F (at 3:30 PM)
Minimum temperature yesterday: 52 °F (at 6:00 AM)
Average temperature yesterday: 64 °F

Past Weeks' High & Low Weather Summary

 TemperatureHumidityPressure
High77 °F (May 29, 3:30 PM)100% (May 16, 12:00 AM)30.36 "Hg (May 16, 12:00 AM)
Low39 °F (May 21, 1:30 AM)27% (May 29, 4:00 PM)29.80 "Hg (May 18, 6:00 PM)
Average58 °F67%30.08 "Hg
* Reported May 15 9:00 PM — May 30 9:30 PM, Chalon-sur-Saône, Weather by CustomWeather, © 2015

Note: Actual official high and low records may vary slightly from our data, if they occured in-between our weather recording intervals... More about our weather records

Advertising

Chalon-sur-Saône weather history for previous 24 hours

 ConditionsComfort  
Time TempWeatherWind HumidityBarometerVisibility
9:30 PM
Sat, May 30
61 °FSunny.1 mph68%30.07 "Hg10 mi
9:00 PM63 °FBroken clouds.2 mph59%30.04 "HgN/A
8:30 PM66 °FSunny.5 mph56%30.04 "Hg10 mi
8:00 PM66 °FSunny.7 mph56%30.04 "Hg10 mi
7:30 PM66 °FPassing clouds.6 mph52%30.07 "HgN/A
7:00 PM68 °FSunny.6 mph49%30.07 "Hg10 mi
6:30 PM68 °FSunny.8 mph49%30.07 "Hg10 mi
6:00 PM68 °FScattered clouds.7 mph49%30.07 "HgN/A
5:30 PM68 °FPassing clouds.9 mph49%30.07 "HgN/A
5:00 PM70 °FPartly sunny.10 mph43%30.07 "HgN/A
4:30 PM70 °FPassing clouds.9 mph43%30.07 "HgN/A
4:00 PM68 °FCloudy.10 mph49%30.07 "HgN/A
3:30 PM68 °FMostly cloudy.9 mph53%30.07 "HgN/A
3:00 PM68 °FPartly sunny.9 mph56%30.07 "HgN/A
2:30 PM64 °FMostly cloudy.8 mph60%30.07 "HgN/A
2:00 PM66 °FBroken clouds.8 mph56%30.07 "HgN/A
1:30 PM64 °FPassing clouds.9 mph60%30.07 "HgN/A
1:00 PM64 °FOvercast.12 mph60%30.07 "HgN/A
12:30 PM64 °FOvercast.12 mph56%30.07 "HgN/A
12:00 PM63 °FPartly sunny.12 mph59%30.07 "HgN/A
11:30 AM63 °FMostly cloudy.10 mph64%30.07 "HgN/A
11:00 AM63 °FPassing clouds.12 mph64%30.07 "HgN/A
10:30 AM61 °FPassing clouds.12 mph68%30.07 "HgN/A
10:00 AM61 °FSunny.12 mph68%30.04 "Hg10 mi
9:30 AM59 °FSunny.12 mph72%30.04 "Hg10 mi
9:00 AM59 °FSunny.10 mph72%30.04 "Hg10 mi
8:30 AM57 °FSunny.9 mph77%30.04 "Hg10 mi
8:00 AM57 °FSunny.8 mph77%30.04 "Hg10 mi
7:30 AM57 °FClear.9 mph77%30.01 "Hg10 mi
7:00 AM57 °FClear.9 mph77%30.01 "Hg10 mi
6:30 AM57 °FClear.9 mph77%30.01 "Hg10 mi
6:00 AM55 °FClear.9 mph82%30.01 "Hg10 mi
5:30 AM55 °FClear.8 mph82%29.98 "Hg10 mi
5:00 AM55 °FClear.6 mph82%29.98 "Hg10 mi
4:30 AM55 °FClear.7 mph82%29.98 "Hg10 mi
4:00 AM55 °FPassing clouds.7 mph82%29.98 "HgN/A
3:30 AM54 °FClear.7 mph82%29.98 "Hg10 mi
3:00 AM54 °FClear.7 mph77%29.98 "Hg10 mi
2:30 AM52 °FClear.6 mph82%29.98 "Hg10 mi
2:00 AM54 °FClear.5 mph77%29.98 "Hg10 mi
1:30 AM54 °FClear.6 mph77%29.98 "Hg10 mi
1:00 AM52 °FClear.2 mph82%29.98 "Hg10 mi
12:30 AM54 °FClear.3 mph77%29.98 "Hg10 mi
12:00 AM54 °FClear.3 mph77%29.98 "Hg10 mi
11:30 PM
Fri, May 29
54 °FClear.2 mph77%29.98 "Hg10 mi
10:30 PM59 °FSunny.5 mph68%29.95 "Hg10 mi
10:00 PM57 °FSunny.3 mph72%29.95 "Hg10 mi
Weather by CustomWeather, © 2015

See weather overviewHow to use our weather pages